IRIDIUM 153 (43078 NORAD) Tracking and Keplerian Element Data

This shows tracking and keplerian element data for the satellite.

Feedback or suggestion? Click here.




ElementValue
Catalog43078
NameIRIDIUM 153
Epoch Orbit12042
Epoch Day93.72415772
Epoch Year2020
RAAN157.6346
Inclination86.4003
Eccentricity0.0001264
Argument of Perigee102.7188
Mean Anonmoly257.4149
Mean Motion14.3421632
Decay Rate6.4E-07
L11 43078U 17083J 20093.72415772 .00000064 00000-0 15907-4 0 9996
L22 43078 86.4003 157.6346 0001264 102.7188 257.4149 14.34216320120424

Live tracking and technical data element details for IRIDIUM 153 (NORAD 43078). IRIDIUM 153 can be tracked NOW for your location showing map with azimuth and elevation plus other details from your city location.

Track the satellite on the map from your city or location and see movement details for azimuth, elevation, latitude, longitude, range, height, and movement on the map or in text.







IsCatalogInMostPopularTable: catalog: 43078, numindb: 434
Update: records affected: 1



GetName: 43078 IRIDIUM 153

Hit Count: updated at: Thu, 09 Apr 2020 17:17:42 GMT